Powrót do katalogu

ATLAS 5 CENTAUR DEB

AktywnyHEO
NORAD 44675·DEBRIS·🇺🇸 United States

Wystrzelony Oct 17, 2018 z Cape Canaveral Space Force Station

Loading…

Następne Przeloty (najbliższe 24 godziny)

TLE

ŚwieżeSource: Space-Track

Epoka: Sep 14, 2026, 06:37 UTC

1 44675U 18079AM  26257.27633717 -.00000181  00000-0  00000-0 0  9990
2 44675  13.5196  30.3481 4671546 321.9273  12.8159  1.80467886 48569

Śledź ATLAS 5 CENTAUR DEB w czasie rzeczywistym z AllMySat

Download on the App Store